Location: Praha
(50.0830°N, 14.4670°E)
Time: 16:22:27
(UTC+01:00)

X-37B - Pass Details

Date: 11 October 2023
Orbit: 277 x 277 km, 45.0° (Epoch: 01 November)

Event Time Altitude Azimuth Distance (km) Brightness Sun altitude
Rises 19:33:09 0° 237° (WSW) 1,911 5.0 -12.5°
Reaches altitude 10° 19:35:20 10° 219° (SW) 1,099 3.3 -12.9°
Maximum altitude 19:37:13 20° 168° (SSE) 731 1.8 -13.2°
Enters shadow 19:37:37 19° 153° (SSE) 752 1.7 -13.3°
